Location: Fours
(44.3167°N, 6.7000°E)
Time: 10:09:39
(UTC+00:00)

USA 238 DEB - Pass Details

Date: 30 November 2020
Orbit: 996 x 1216 km, 63.4° (Epoch: 22 January)

Event Time Altitude Azimuth Distance (km) Brightness Sun altitude
Rises 17:45:03 0° 195° (SSW) 3,707 6.9 -19.0°
Reaches altitude 10° 17:47:41 10° 189° (S) 2,773 6.1 -19.5°
Maximum altitude 17:53:52 48° 117° (ESE) 1,324 3.8 -20.6°
Enters shadow 17:55:57 37° 73° (ENE) 1,576 4.0 -20.9°
